Flag for Germany Weather past 2 weeks in Rendsburg, Schleswig-Holstein, Germany

55 °F

Light rain. Fog.

Feels Like: 52 °F
Forecast: 53 / 58 °F
Wind: 12 mph from Southeast

Location: Hohn

Current Time: Oct 7, 2015 at 9:03:15 AM

Latest Report: Oct 7, 2015 at 8:20 AM

Visibility: 2 mi

Pressure: 29.80 "Hg

Humidity: 94%

Dew point: 54 °F

Location of RendsburgLocation

Historic Weather in Rendsburg — Graph


Rendsburg temperature yesterday

Maximum temperature yesterday: 59 °F (at 12:20 PM)
Minimum temperature yesterday: 52 °F (at 4:20 AM)
Average temperature yesterday: 56 °F

Past Weeks' High & Low Weather Summary

High64 °F (Oct 5, 2:20 PM)100% (Sep 22, 11:01 AM)30.74 "Hg (Sep 22, 11:01 AM)
Low36 °F (Sep 27, 7:20 AM)45% (Sep 29, 4:20 PM)29.53 "Hg (Sep 22, 3:20 PM)
Average51 °F89%30.17 "Hg
* Reported Sep 22 8:20 AM — Oct 7 8:02 AM, Rendsburg, Weather by CustomWeather, © 2015

Note: Actual official high and low records may vary slightly from our data, if they occured in-between our weather recording intervals... More about our weather records


Rendsburg weather history for previous 24 hours

Time TempWeatherWind HumidityBarometerVisibility
8:02 AM
Wed, Oct 7
55 °FFog.12 mph94%29.80 "Hg2 mi
7:20 AM55 °FLight rain. Fog.10 mph94%29.80 "Hg1 mi
6:20 AM55 °FRain. Fog.13 mph94%29.77 "Hg2 mi
6:01 AM55 °FRain. Fog.13 mph94%29.77 "Hg2 mi
5:20 AM55 °FLight rain. Fog.13 mph94%29.77 "Hg2 mi
4:20 AM57 °FLight rain. Passing clouds.14 mph82%29.77 "Hg4 mi
3:20 AM57 °FPassing clouds.14 mph82%29.77 "Hg5 mi
2:20 AM57 °FPassing clouds.10 mph82%29.77 "Hg4 mi
1:20 AM57 °FFog.12 mph82%29.77 "Hg3 mi
12:20 AM57 °FFog.12 mph88%29.77 "Hg3 mi
11:20 PM
Tue, Oct 6
57 °FFog.12 mph88%29.77 "Hg3 mi
10:20 PM57 °FFog.12 mph88%29.77 "Hg3 mi
9:20 PM57 °FFog.12 mph88%29.77 "Hg3 mi
9:02 PM57 °FFog.13 mph88%29.77 "Hg3 mi
8:20 PM57 °FFog.13 mph88%29.74 "Hg3 mi
7:20 PM57 °FLight rain. Fog.14 mph94%29.74 "Hg1 mi
6:20 PM55 °FDrizzle. Fog.13 mph100%29.71 "Hg1 mi
5:55 PM55 °FDrizzle. Fog.14 mph100%29.71 "Hg1 mi
5:20 PM55 °FDrizzle. Fog.13 mph94%29.71 "Hg1 mi
4:20 PM57 °FLight rain. Fog.15 mph88%29.71 "Hg2 mi
3:48 PM57 °FDrizzle. Fog.15 mph82%29.71 "Hg2 mi
3:20 PM59 °FDrizzle. Fog.17 mph77%29.71 "Hg2 mi
2:57 PM59 °FDrizzle. Partly sunny.17 mph77%29.71 "Hg2 mi
2:49 PM59 °FLight rain. Partly sunny.17 mph77%29.74 "Hg3 mi
2:20 PM59 °FBroken clouds.17 mph77%29.74 "Hg3 mi
1:20 PM59 °FMostly cloudy.18 mph77%29.74 "Hg3 mi
12:20 PM59 °FBroken clouds.15 mph77%29.74 "Hg3 mi
11:20 AM57 °FFog.15 mph82%29.74 "Hg3 mi
10:20 AM55 °FFog.15 mph88%29.77 "Hg3 mi
9:20 AM55 °FFog.14 mph82%29.77 "Hg3 mi
Weather by CustomWeather, © 2015

See weather overviewHow to use our weather pages